458  
ASUS46 KSEW 192110  
RWRWA  
 
WASHINGTON REGIONAL WEATHER ROUNDUP  
NATIONAL WEATHER SERVICE SEATTLE WA  
100 PM PST SUN NOV 19 2017  
 
NOTE:"FAIR" INDICATES FEW OR NO CLOUDS BELOW 12,000 FEET WITH NO  
SIGNIFICANT WEATHER AND/OR S TO VISIBILITY
.  
 
WAZ507-509-555>559-192200-  
SEATTLE, TACOMA, EVERETT, AND VICINITY  
 
CITY SKY/WX TMP DP RH WIND PRES REMARKS
 
EVERETT CLOUDY 49 33 54 SE13G23 29.76F  
BOEING FIELD CLOUDY 51 35 54 S6 29.78F  
RENTON CLOUDY 55 28 35 S10 29.77F  
SEATAC AIRPORT CLOUDY 51 34 52 S8 29.77F  
JBLM-MCCHORD CLOUDY 53 28 37 S18G28 29.78F  
PUYALLUP FAIR 54 19 26 S8G20 29.78F  
BREMERTON CLOUDY 45 35 68 S20G25 29.78F  
JBLM-FT LEWIS CLOUDY 52 32 47 S21G30 29.77F  
TACOMA NARROWS CLOUDY 50 31 48 S15G28 29.80F  

 
 
WAZ001-503-506-510-514-515-192200-  
NORTH INTERIOR  
 
CITY SKY/WX TMP DP RH WIND PRES REMARKS
 
BELLINGHAM LGT RAIN 50 33 52 S29G43 29.65R  
FRIDAY HARBOR LGT RAIN 47 41 80 SE16G22 29.67R  
EASTSOUND LGT RAIN 46 39 76 S13G24 29.65F  
PORT ANGELES LGT RAIN 49 46 90 MISG 29.61F FOG  
EDIZ HOOK LGT RAIN 49 45 86 CALM 29.62F  
PORT TOWNSEND FAIR 50 36 57 S21G43 29.67F  
NAS WHIDBEY CLOUDY 51 33 50 S36G49 29.71F  
ARLINGTON CLOUDY 53 25 33 S24 29.75F  
BURLINGTON CLOUDY 52 28 40 SE16G29 29.70F  

 
 
WAZ020-022-039-040-504-511-512-192200-  
SOUTHWEST INTERIOR  
 
CITY SKY/WX TMP DP RH WIND PRES REMARKS
 
SHELTON CLOUDY 46 39 76 CALM 29.79F  
OLYMPIA CLOUDY 47 34 60 SW18G29 29.80F  
CHEHALIS FAIR 46 36 66 S21G30 29.83F  
KELSO CLOUDY 45 36 70 S13G20 29.90F  
VANCOUVER CLOUDY 46 37 71 SE9 29.93F  
SCAPPOOSE, OR CLOUDY 44 38 79 CALM 29.92F  
PORTLAND, OR CLOUDY 46 35 65 SE9 29.93F  

 
 
WAZ021-516-517-192200-  
WASHINGTON COAST  
 
CITY SKY/WX TMP DP RH WIND PRES REMARKS
 
FORKS LGT RAIN 48 46 93 S18G30 29.64F  
HOQUIAM LGT RAIN 48 43 82 S21G31 29.79F  
ASTORIA, OR CLOUDY 51 41 68 S14G26 29.83F  

 
 
WAZ019-023-024-040-567>569-192200-  
CASCADE MOUNTAINS AND COLUMBIA GORGE  
 
CITY SKY/WX TMP DP RH WIND PRES REMARKS
 
STAMPEDE PASS CLOUDY 37 30 75 CALM 29.76F  
TROUTDALE, OR CLOUDY 47 39 74 E8 29.94F  
HOOD RIVER, OR PTCLDY 37 36 93 CALM 29.94F  
THE DALLES, OR CLOUDY 37 34 89 CALM 29.97F  

 
 
WAZ026-027-041>044-520-521-192200-  
EAST SLOPES  
 
CITY SKY/WX TMP DP RH WIND PRES REMARKS
 
OMAK CLOUDY 40 33 76 SW12 29.79F  
WENATCHEE PTSUNNY 37 32 82 E9 29.82F  
ELLENSBURG CLOUDY 34 31 88 CALM 29.84F  
YAKIMA PTSUNNY 43 31 62 CALM 29.87F  
SUNNYSIDE ARPT CLOUDY 39 33 78 CALM 29.89F  
YAKIMA TC FAIR 38 30 71 CALM 29.84F  

 
 
WAZ028-034-035-192200-  
COLUMBIA BASIN  
 
CITY SKY/WX TMP DP RH WIND PRES REMARKS
 
EPHRATA CLOUDY 36 29 75 CALM 29.86F  
MOSES LAKE CLOUDY 40 34 79 S6 29.87F  
PASCO CLOUDY 48 30 49 S8 29.92F  
RICHLAND ARPT CLOUDY 49 32 52 S8 29.91F  
HERMISTON, OR CLOUDY 43 33 68 CALM 29.92F  

 
 
WAZ036>038-192200-  
NORTHEAST WASHINGTON  
 
CITY SKY/WX TMP DP RH WIND PRES REMARKS
 
SPOKANE GEIGER CLOUDY 42 26 53 S8 29.87F  
SPOKANE FELTS CLOUDY 46 26 45 S15 29.88F  
FAIRCHILD AFB LGT RAIN 41 27 56 S13 29.86F  
COEURDALENE,ID PTSUNNY 44 27 51 S10 29.89F  
DEER PARK CLOUDY 41 30 65 S7 29.87F  

 
 
WAZ029>033-192200-  
SOUTHEAST WASHINGTON  
 
CITY SKY/WX TMP DP RH WIND PRES REMARKS
 
PULLMAN CLOUDY 42 27 55 SE13 29.92F  
LEWISTON, ID CLOUDY 50 28 42 S14 29.91F  
WALLA WALLA CLOUDY 51 34 52 NW5 29.88F  
PENDLETON, OR CLOUDY 49 31 49 NW9 29.89F  

 
 
 
CLICK HERE TO GO TO PREVIOUS BULLETINS.

The Nexlab WA Page Main Text Page